Location: Cicognara
(44.9500°N, 10.4667°E)
Time: 21:35:47
(UTC+00:00)

Cosmos 1455 Rocket - Pass Details

Date: 20 June 2021
Orbit: 605 x 629 km, 82.5° (Epoch: 23 July)

Event Time Altitude Azimuth Distance (km) Brightness Sun altitude
Rises 19:56:03 0° 354° (N) 2,926 7.4 -7.4°
Reaches altitude 10° 19:58:19 10° 358° (N) 2,016 6.4 -7.6°
Maximum altitude 20:02:45 62° 79° (E) 713 3.2 -8.2°
Drops below altitude 10° 20:07:09 10° 161° (SSE) 2,001 5.1 -8.7°
Enters shadow 20:07:24 - 161° (SSE) 2,101 5.2 -8.8°
